x

Gulf Of Maine - 78 Nm East Of Portsmouth, Nh (44005) Wave Buoy

3:50am - Fri 27th May 2016 All times are EDT. -4 hours from GMT.

  • Sig Wave height 2.0ft
  • Peak Period 8s
  • Average Period 5s
  • Wind
    11mph, 13mph gusts
  • Sea Temp 52°f
  • Air Temp 53°f
  • Sea Pressure 1020.9mb
  • Gulf Of Maine - 78 Nm East Of Portsmouth, Nh
  • Gulf Of Maine - 78 Nm East Of Portsmouth, Nh

More Historic Weather Station data

Upgrade to MSW Pro to gain access to the past 30 days of data for over 8000 Wavebouys and Weather Stations around the globe.

Join Pro

Comparision Forecast

View Surf forecast
   
Fri 05/27 3:50am 2ft 8s 5s 11 13 mph 1020.9mb 52f 53f
2:50am 2ft 8s 5s 13 16 mph 1020.9mb 51f 53f
1:50am 2ft 8s 5s 7 9 mph 1021.3mb 52f 53f
12:50am 2.5ft 8s 5s 11
mph
1020.9mb 52f 54f
Thu 05/26 11:50pm 2.5ft 7s 5s 9 11 mph 1021mb 52f 54f
10:50pm 2.5ft 8s 6s 11
mph
1020.6mb 52f 55f
9:50pm 2.5ft 7s 6s 11
mph
1020.2mb 52f 54f
8:50pm 2.5ft 7s 6s 7 9 mph 1019.8mb 52f 54f
7:50pm 2.5ft 8s 6s 11
mph
1019.8mb 52f 55f
6:50pm 2ft 8s 6s 9 11 mph 1019mb 54f 56f
5:50pm 2ft 7s 6s 9
mph
1018.7mb 55f 57f
4:50pm 2ft 8s 6s 9 11 mph 1018.8mb 56f 58f
3:50pm 2.5ft 8s 6s 7
mph
1018.7mb 56f 58f
2:50pm 2.5ft 8s 6s 7
mph
1018.8mb 57f 58f
1:50pm 2.5ft 8s 6s 4
mph
1018.6mb 56f 58f
12:50pm 3ft 7s 6s 4
mph
1018.9mb 55f 56f
11:50am 3ft 7s 6s 7
mph
1019mb 54f 57f
10:50am 3ft 8s 6s 4
mph
1018.7mb 53f 56f
9:50am 3ft 7s 7s 7
mph
1018.6mb 52f 56f
8:50am 3ft 7s 7s 7
mph
1018.7mb 51f 55f
7:50am 2.5ft 8s 6s 9 11 mph 1018.5mb 51f 54f
6:50am 2.5ft 8s 6s 7
mph
1017.7mb 51f 54f
5:50am 2.5ft 8s 6s 9
mph
1016.9mb 51f 54f
4:50am 2.5ft 8s 6s 7
mph
1016mb 51f 54f
3:50am 2.5ft 9s 6s 9
mph
1015.3mb 51f 53f
2:50am 2.5ft 8s 5s 9
mph
1014.6mb 51f 53f
1:50am 3ft 8s 5s 7 9 mph 1013.9mb 51f 53f
12:50am 3.5ft 7s 5s 2
mph
1013.6mb 51f 53f
Wed 05/25 11:50pm 3.5ft 8s 5s 7 9 mph 1013.6mb 51f 53f
10:50pm 4ft 7s 5s 7 11 mph 1014.3mb 51f 53f
9:50pm 4ft 7s 5s 7 9 mph 1013.6mb 51f 53f
8:50pm 4.5ft 7s 5s 11 13 mph 1013.5mb 51f 53f
7:50pm 4ft 8s 6s 13 18 mph 1013.4mb 51f 53f
6:50pm 3.5ft 8s 5s 16
mph
1013.4mb 52f 53f
5:50pm 3.5ft 7s 6s 16 18 mph 1013.4mb 52f 52f
4:50pm 3ft 8s 6s 11 13 mph 1014.1mb 52f 51f
3:50pm 3ft 8s 6s 11 13 mph 1014.3mb 52f 50f
2:50pm 3ft 8s 7s 11 13 mph 1014.7mb 52f 50f
1:50pm 3ft 8s 6s 9 11 mph 1014.4mb 52f 49f
12:50pm 3.5ft 8s 6s 9 11 mph 1015.2mb 51f 49f
11:50am 3.5ft 7s 7s 7 9 mph 1015.9mb 51f 49f
10:50am 3.5ft 8s 7s 7 11 mph 1015.8mb 51f 50f
9:50am 4ft 8s 7s 7 9 mph 1015.8mb 51f 50f
8:50am 4ft 7s 7s 4
mph
1015.6mb 50f 49f
7:50am 4ft 8s 7s 4 9 mph 1015.4mb 49f 49f
6:50am 3.5ft 8s 7s 9 11 mph 1015.2mb 49f 49f
5:50am 3.5ft 8s 7s 4
mph
1014.8mb 49f 49f
4:50am 3.5ft 8s 7s 2 4 mph 1014.3mb 49f 49f
3:50am 2.5ft 8s 6s 4 7 mph 1014.1mb 49f 49f
2:50am 2.5ft 8s 6s 7 9 mph 1013.9mb 49f 49f
1:50am 3ft 9s 6s 7 9 mph 1014.1mb 49f 50f
12:50am 3.5ft 9s 6s 7 9 mph 1013.7mb 49f 50f
Tue 05/24 11:50pm 3.5ft 9s 6s 7 9 mph 1014mb 49f 49f
10:50pm 3.5ft 8s 6s  -  2 mph 1014.3mb 49f 49f
9:50pm 4ft 8s 6s 7
mph
1014.4mb 49f 49f
8:50pm 4ft 9s 6s  -  2 mph 1014.3mb 49f 49f
7:50pm 4.5ft 9s 6s 2
mph
1014.3mb 50f 49f
6:50pm 5ft 8s 7s 7 9 mph 1014.1mb 50f 49f
5:50pm 4.5ft 8s 6s 4 7 mph 1013.8mb 50f 50f
4:50pm 4.5ft 8s 6s 7 9 mph 1013.8mb 50f 50f
3:50pm 4ft 9s 6s 7
mph
1013.8mb 49f 50f
2:50pm 4ft 8s 6s 7
mph
1014mb 49f 49f
1:50pm 3.5ft 9s 5s 11
mph
1013.9mb 49f 49f
12:50pm 3.5ft 10s 5s 13 16 mph 1013.7mb 49f 49f
11:50am 4ft 9s 5s 16 20 mph 1013.8mb 49f 49f
10:50am 4ft 9s 5s 18 22 mph 1013.6mb 49f 49f
9:50am 4.5ft 10s 6s 13 16 mph 1014.1mb 49f 48f
8:50am 4.5ft 10s 6s 18 20 mph 1013.8mb 49f 48f
7:50am 4.5ft 9s 6s 18 20 mph 1013.7mb 49f 48f
6:50am 4.5ft 8s 6s 16 18 mph 1013.7mb 49f 48f
5:50am 4.5ft 10s 7s 16 20 mph 1013.2mb 49f 47f
4:50am 4.5ft 9s 7s 16 18 mph 1013.3mb 49f 48f
3:50am 4.5ft 9s 7s 13 16 mph 1013.6mb 49f 48f
2:50am 4ft 9s 7s 13
mph
1013.8mb 49f 49f
1:50am 4.5ft 9s 7s 9 11 mph 1013.4mb 49f 50f
12:50am 4ft 10s 7s 11
mph
1012.7mb 49f 50f
Mon 05/23 11:50pm 4ft 10s 7s 7 9 mph 1013.2mb 50f 51f
10:50pm 4.5ft 10s 7s 4 7 mph 1013.3mb 49f 51f
9:50pm 4.5ft 10s 7s 7
mph
1013.1mb 50f 51f
8:50pm 5.5ft 10s 8s 4 7 mph 1013.2mb 50f 52f
7:50pm 5.5ft 10s 8s 4 7 mph 1012.4mb 51f 52f
6:50pm 5.5ft 10s 8s 2 4 mph 1012.6mb 51f 53f
5:50pm 5.5ft 9s 8s 7
mph
1012.9mb 52f 52f
4:50pm 5.5ft 10s 8s 7 9 mph 1012.1mb 52f 53f
3:50pm 5.5ft 9s 7s 7 9 mph 1012mb 52f 53f
2:50pm 5.5ft 10s 7s 7 9 mph 1012mb 51f 53f
1:50pm 5ft 10s 7s 4 7 mph 1012mb 51f 53f
12:50pm 5ft 10s 7s 4
mph
1012mb 50f 54f
11:50am 5ft 10s 7s 9 11 mph 1011.9mb 50f 53f
10:50am 5ft 11s 7s 13 16 mph 1011.6mb 49f 53f
9:50am 5ft 11s 7s 11 13 mph 1011.8mb 49f 52f